{"data":{"norad_id":53488,"intl_designator":"2022-099Z","name":"STARLINK-4421","alt_names":[],"object_type":"PAYLOAD","status":"ACTIVE","operator":null,"country":"US","launch_date":"2022-08-12","launch_site_code":"AFWTR","launch_vehicle":null,"mission":null,"orbit_class":"UNKNOWN","rcs_meters":null,"size_class":null,"mass_kg":null,"dimensions":null,"purposes":["comms"],"wikipedia_slug":null,"has_3d_model":false,"image_url":null,"decayed_at":null,"tle_current":{"epoch":"2026-09-20T13:51:41.570208Z","epoch_age_seconds":72379,"freshness":"FRESH","line1":"1 53488U 22099Z   26263.57756447 -.00000090  00000+0 -46512-6 0  9998","line2":"2 53488  97.2856  21.2826 0000918  93.5327 266.6021 15.33438181225565","mean_motion":15.33438181,"eccentricity":9.18e-5,"inclination_deg":97.2856,"raan_deg":21.2826,"arg_perigee_deg":93.5327,"mean_anomaly_deg":266.6021,"bstar":-4.6512e-7,"rev_number":22556,"period_min":93.906622245504,"perigee_km":464.93521139723,"apogee_km":466.19171480225,"semimajor_km":6843.7004630997,"source":"CELESTRAK","updated_at":"2026-09-21T09:00:32.892491Z"}}}